📊 Raw Sensor Data

Showing records 50976 to 51000 of 85,142 total

ID Distance (ft) Battery V Battery A Int Temp (°F) Int Humid (%) Ext Temp (°F) Solar V RSSI SNR Time Stamp
34179 15.1 3.96 -5 44 38 46 0.00 -74 7 03/06/2025 12:30 AM
34178 15.2 3.96 -5 44 38 45 0.00 -74 8 03/06/2025 12:15 AM
34177 15.1 4.02 -5 45 38 46 0.00 -72 8 03/06/2025 12:00 AM
34176 15.1 4.02 -5 45 38 46 0.10 -74 7 03/05/2025 11:45 PM
34175 15.1 3.97 -5 45 38 47 0.00 -74 8 03/05/2025 11:30 PM
34174 15.1 3.97 -5 45 38 46 0.00 -74 8 03/05/2025 11:15 PM
34173 15.1 4.03 -5 44 38 46 0.00 -73 8 03/05/2025 11:00 PM
34172 15.1 3.97 -5 44 38 46 0.00 -72 8 03/05/2025 10:45 PM
34171 15.1 3.97 -5 44 39 46 0.00 -74 8 03/05/2025 10:30 PM
34170 15.1 3.97 -5 44 39 46 0.00 -75 8 03/05/2025 10:15 PM
34169 15.1 3.97 -5 44 39 46 0.00 -74 8 03/05/2025 10:00 PM
34168 15.1 3.97 -5 45 39 46 0.00 -75 8 03/05/2025 09:45 PM
34167 15.1 3.97 -5 45 39 46 0.00 -74 8 03/05/2025 09:30 PM
34166 15.1 3.97 -5 45 39 47 0.00 -74 8 03/05/2025 09:15 PM
34165 15.1 3.97 -5 46 39 47 0.00 -74 8 03/05/2025 09:00 PM
34164 15.1 4.03 -5 46 40 47 0.00 -72 8 03/05/2025 08:45 PM
34163 15.1 4.03 -5 47 40 47 0.10 -74 8 03/05/2025 08:30 PM
34162 15.1 4.03 -5 47 40 48 0.00 -73 8 03/05/2025 08:15 PM
34161 15.1 3.98 -5 48 40 48 0.00 -74 8 03/05/2025 08:00 PM
34160 15.1 3.98 -5 48 40 49 0.00 -73 8 03/05/2025 07:45 PM
34159 15.1 3.98 -5 49 40 49 0.10 -72 8 03/05/2025 07:30 PM
34158 15.1 3.98 -5 50 40 50 0.00 -75 8 03/05/2025 07:15 PM
34157 15.1 3.98 -5 50 40 50 0.00 -77 8 03/05/2025 07:00 PM
34156 15.1 3.98 -5 51 41 51 0.00 -77 8 03/05/2025 06:45 PM
34155 15.1 3.99 -5 51 41 52 0.00 -75 7 03/05/2025 06:30 PM